Погода в Лейрии

Португалия     39°44′29″N   8°48′37″W
темп.,
°C
ветер,
м/с
пор.,
м/с
влажн.,
%
обл.,
%
осадки,
мм/ч
давл.,
гПа
погр.,
м
4 июля, пн
пн401:00+15зюз11976 0.0 101823
04:00+15ю11963 0.0 101717
07:00+15ююв12923 0.0 101840
10:00+24ю12560 0.0 1018679
13:00+29зюз23360 0.0 10171635
16:00+25зсз54530 0.0 1017598
19:00+22зсз34640 0.0 1016488
22:00+16сз22960 0.0 101726
5 июля, вт
вт501:00+16зсз11930 0.0 101711
04:00+15зюз11960 0.0 101611
07:00+16юз01960 0.0 101715
10:00+25ююз11540 0.0 1017576
13:00+30з34340 0.0 10161686
16:00+27зсз55490 0.0 1016596
19:00+23зсз35630 0.0 1016447
22:00+17зюз229710 0.0 101733
6 июля, ср
ср601:00+16зюз11977 0.0 101815
04:00+15з119825 0.0 101814
07:00+16юз00976 0.0 101814
10:00+25сз11560 0.0 1019516
13:00+32сз22340 0.0 10191321
16:00+29сз55420 0.0 1019606
19:00+25сз46540 0.0 1019425
22:00+18сз22820 0.0 102030
7 июля, чт
чт701:00+18ссз11790 0.0 101916
04:00+18с11730 0.0 101911
07:00+20вюв11650 0.0 101912
10:00+31в35300 0.0 1020789
13:00+37с23200 0.0 10192670
16:00+35сз66220 0.0 10181135
19:00+32ссз59260 0.0 1018584
22:00+23ссз23480 0.0 101941
8 июля, пт
пт801:00+21с11530 0.0 101912
04:00+22в11390 0.0 101811
07:00+23вюв22320 0.0 101937
10:00+33вюв46200 0.0 1019745
13:00+39св01140 0.0 10182531
16:00+36сз66180 0.0 10171025
19:00+31ссз48240 0.0 1017406
22:00+21сз22540 0.0 101827